Weather History for LGRP - October, 2012

Change the Weather History Date:

Thursday, October 25, 2012

  Actual Average Record
Temperature  
Mean Temperature 67 °F -  
Max Temperature 73 °F 69 °F 82 °F (2003)
Min Temperature 61 °F 57 °F 56 °F (2013)
Cooling Degree Days 2    
Growing Degree Days 17 (Base 50)    
Moisture  
Dew Point 62 °F    
Average Humidity 84    
Maximum Humidity 100    
Minimum Humidity 64    
Precipitation  
Precipitation 0.28 in 0.11 in - ()
Sea Level Pressure  
Sea Level Pressure 29.84 in    
Wind  
Wind Speed 4 mph ()    
Max Wind Speed 13 mph    
Max Gust Speed -    
Visibility 6.1 miles    
Events Rain , Thunderstorm    
Averages and records for this station are not official NWS values.
T = Trace of Precipitation, MM = Missing Value Source: Averaged Metar Reports

Daily Weather History Graph

Daily Weather History Graph

Search for Another Location

Airport or City:

Trip Planner

Search our weather history database for the weather conditions in past years. The results will help you decide how hot, cold, wet, or windy it might be!

Date:

Astronomy

Oct. 25, 2012 Rise Set
Actual Time 7:24 AM EEST 6:18 PM EEST
Civil Twilight 6:57 AM EEST 6:44 PM EEST
Nautical Twilight 6:27 AM EEST 7:15 PM EEST
Astronomical Twilight 5:57 AM EEST 7:45 PM EEST
Moon 3:49 PM EEST (10/25) 3:07 AM EEST (10/25)
Length of Visible Light 11h 47m
Length of Day
10h 54m
Waxing Gibbous, 82% of the Moon is Illuminated
Oct 25
Waxing Gibbous
Oct 29
Full
Nov 7
Last Quarter
Nov 14
New
Nov 20
First Quarter

Hourly Weather History & Observations

Time (EEST) Temp. Dew Point Humidity Pressure Visibility Wind Dir Wind Speed Gust Speed Precip Events Conditions
12:20 AM 60.8 °F 60.8 °F 100% 29.89 in 4.3 mi Variable 2.3 mph - N/A Rain Light Rain
12:50 AM 60.8 °F 60.8 °F 100% 29.89 in 6.2 mi Variable 3.5 mph - N/A Rain Light Rain
1:20 AM 60.8 °F 60.8 °F 100% 29.89 in 6.2 mi Variable 3.5 mph - N/A Rain Light Rain
1:50 AM 60.8 °F 60.8 °F 100% 29.89 in 6.2 mi Variable 3.5 mph - N/A   Mostly Cloudy
2:20 AM 60.8 °F 60.8 °F 100% 29.89 in 6.2 mi Variable 3.5 mph - N/A   Mostly Cloudy
2:50 AM 62.6 °F 60.8 °F 94% 29.86 in 6.2 mi Calm Calm - N/A   Mostly Cloudy
3:00 AM 63 °F 61 °F 90% 29.88 in 6 mi Calm Calm - -  
3:20 AM 62.6 °F 60.8 °F 94% 29.86 in 6.2 mi Variable 2.3 mph - N/A   Mostly Cloudy
3:50 AM 62.6 °F 60.8 °F 94% 29.83 in 6.2 mi Variable 3.5 mph - N/A   Mostly Cloudy
4:20 AM 62.6 °F 60.8 °F 94% 29.83 in 6.2 mi Variable 2.3 mph - N/A   Mostly Cloudy
4:50 AM 62.6 °F 59.0 °F 88% 29.83 in 6.2 mi Variable 3.5 mph - N/A   Mostly Cloudy
5:20 AM 62.6 °F 59.0 °F 88% 29.83 in 6.2 mi Variable 2.3 mph - N/A   Mostly Cloudy
5:50 AM 62.6 °F 62.6 °F 100% 29.83 in 6.2 mi Variable 2.3 mph - N/A   Mostly Cloudy
6:20 AM 62.6 °F 62.6 °F 100% 29.83 in 6.2 mi Variable 3.5 mph - N/A   Mostly Cloudy
6:50 AM 62.6 °F 62.6 °F 100% 29.83 in 6.2 mi Variable 3.5 mph - N/A   Mostly Cloudy
7:20 AM 62.6 °F 62.6 °F 100% 29.83 in 6.2 mi Variable 3.5 mph - N/A   Mostly Cloudy
7:50 AM 62.6 °F 59.0 °F 88% 29.83 in 6.2 mi Variable 2.3 mph - N/A   Mostly Cloudy
8:20 AM 62.6 °F 59.0 °F 88% 29.83 in 6.2 mi Variable 2.3 mph - N/A   Scattered Clouds
8:50 AM 64.4 °F 60.8 °F 88% 29.86 in 6.2 mi Variable 2.3 mph - N/A   Mostly Cloudy
9:00 AM 65 °F 61 °F 83% 29.86 in 6 mi 2.3 mph - -   Partly Cloudy
9:20 AM 66.2 °F 60.8 °F 83% 29.86 in 6.2 mi Variable 2.3 mph - N/A   Mostly Cloudy
9:50 AM 68.0 °F 60.8 °F 78% 29.86 in 6.2 mi Variable 2.3 mph - N/A   Mostly Cloudy
10:20 AM 68.0 °F 60.8 °F 78% 29.86 in 6.2 mi Variable 2.3 mph - N/A   Mostly Cloudy
10:50 AM 69.8 °F 62.6 °F 78% 29.86 in 6.2 mi West 4.6 mph - N/A   Mostly Cloudy
11:20 AM 69.8 °F 60.8 °F 73% 29.86 in 6.2 mi WSW 4.6 mph - N/A   Mostly Cloudy
11:50 AM 69.8 °F 60.8 °F 73% 29.86 in 6.2 mi West 4.6 mph - N/A   Scattered Clouds
12:20 PM 71.6 °F 60.8 °F 69% 29.86 in 6.2 mi West 4.6 mph - N/A   Scattered Clouds
12:50 PM 71.6 °F 62.6 °F 73% 29.83 in 6.2 mi West 4.6 mph - N/A   Scattered Clouds
1:20 PM 71.6 °F 62.6 °F 73% 29.83 in 6.2 mi West 6.9 mph - N/A   Scattered Clouds
1:50 PM 71.6 °F 62.6 °F 73% 29.83 in 6.2 mi West 5.8 mph - N/A   Scattered Clouds
2:20 PM 71.6 °F 62.6 °F 73% 29.83 in 6.2 mi West 8.1 mph - N/A   Scattered Clouds
2:50 PM 71.6 °F 62.6 °F 73% 29.80 in 6.2 mi West 9.2 mph - N/A   Mostly Cloudy
3:00 PM 72 °F 62 °F 64% 29.83 in 6 mi West 9.2 mph - -   Scattered Clouds
3:20 PM 71.6 °F 62.6 °F 73% 29.80 in 6.2 mi WSW 9.2 mph - N/A   Scattered Clouds
3:50 PM 73.4 °F 62.6 °F 69% 29.80 in 6.2 mi WSW 11.5 mph - N/A   Scattered Clouds
4:20 PM 73.4 °F 62.6 °F 69% 29.80 in 6.2 mi WSW 12.7 mph - N/A   Scattered Clouds
4:50 PM 73.4 °F 62.6 °F 69% 29.80 in 6.2 mi WSW 10.4 mph - N/A   Scattered Clouds
5:20 PM 73.4 °F 62.6 °F 69% 29.80 in 6.2 mi WSW 9.2 mph - N/A   Mostly Cloudy
5:50 PM 71.6 °F 60.8 °F 69% 29.80 in 6.2 mi WSW 10.4 mph - N/A   Mostly Cloudy
6:20 PM 71.6 °F 62.6 °F 73% 29.80 in 5.6 mi WSW 9.2 mph - N/A   Mostly Cloudy
6:50 PM 71.6 °F 60.8 °F 69% 29.80 in 5.6 mi WSW 10.4 mph - N/A   Mostly Cloudy
7:20 PM 69.8 °F 62.6 °F 78% 29.80 in 5.0 mi WSW 11.5 mph - N/A Rain , Thunderstorm Light Thunderstorms and Rain
7:50 PM 66.2 °F 64.4 °F 94% 29.83 in 5.0 mi South 4.6 mph - N/A Thunderstorm Thunderstorm
8:20 PM 66.2 °F 64.4 °F 94% 29.83 in 5.6 mi ESE 2.3 mph - N/A Rain Light Rain
8:50 PM 66.2 °F 60.8 °F 83% 29.83 in 6.2 mi WSW 6.9 mph - N/A Rain Light Rain
9:00 PM 67 °F 60 °F 71% 29.83 in 6 mi WSW 6.9 mph - - Rain Light Rain
9:20 PM 66.2 °F 60.8 °F 83% 29.83 in 6.2 mi SSW 3.5 mph - N/A   Overcast
9:50 PM 66.2 °F 62.6 °F 88% 29.83 in 6.2 mi Variable 2.3 mph - N/A   Mostly Cloudy
10:20 PM 66.2 °F 62.6 °F 88% 29.83 in 6.2 mi Variable 2.3 mph - N/A   Mostly Cloudy
10:50 PM 66.2 °F 62.6 °F 88% 29.83 in 6.2 mi WNW 6.9 mph - N/A   Mostly Cloudy
11:20 PM 66.2 °F 62.6 °F 88% 29.83 in 6.2 mi WNW 8.1 mph - N/A   Scattered Clouds
11:50 PM 66.2 °F 62.6 °F 88% 29.83 in 6.2 mi WNW 6.9 mph - N/A   Scattered Clouds